Weather History for KAUW - October, 2014

Change the Weather History Date:

Tuesday, October 7, 2014

  Actual Average Record
Temperature  
Mean Temperature 51 °F 49 °F  
Max Temperature 60 °F 59 °F 84 °F (2007)
Min Temperature 41 °F 39 °F 23 °F (1953)
Degree Days  
Heating Degree Days 14 16  
Month to date heating degree days 121 102  
Since 1 July heating degree days 399 395  
Cooling Degree Days 0 0  
Month to date cooling degree days 0 0  
Year to date cooling degree days 338 405  
Moisture  
Dew Point 35 °F    
Average Humidity 64    
Maximum Humidity 89    
Minimum Humidity 39    
Precipitation  
Precipitation T in 0.11 in 1.73 in (1984)
Month to date precipitation 1.87 0.79  
Year to date precipitation 34.51 26.90  
Snow  
Snow 0.00 in 0.00 in T in (1982)
Month to date snowfall T 0.1  
Since 1 July snowfall T 0.1  
Snow Depth 0.00 in    
Sea Level Pressure  
Sea Level Pressure 29.60 in    
Wind  
Wind Speed 12 mph (West)    
Max Wind Speed 29 mph    
Max Gust Speed 35 mph    
Visibility 10 miles    
Events      
T = Trace of Precipitation, MM = Missing Value Source: NWS Daily Summary

Daily Weather History Graph

Daily Weather History Graph

Search for Another Location

Airport or City:

Trip Planner

Search our weather history database for the weather conditions in past years. The results will help you decide how hot, cold, wet, or windy it might be!

Date:

Astronomy

Oct. 07, 2014 Rise Set
Actual Time 7:03 AM CDT 6:27 PM CDT
Civil Twilight 6:34 AM CDT 6:57 PM CDT
Nautical Twilight 6:00 AM CDT 7:31 PM CDT
Astronomical Twilight 5:26 AM CDT 8:05 PM CDT
Moon 6:04 PM CDT (10/7) 5:58 AM CDT (10/7)
Length of Visible Light 12h 22m
Length of Day
11h 23m
Waxing Gibbous, 99% of the Moon is Illuminated
Oct 7
Waxing Gibbous
Oct 8
Full
Oct 15
Last Quarter
Oct 23
New
Oct 30
First Quarter

Hourly Weather History & Observations

Time (CDT) Temp. Windchill Dew Point Humidity Pressure Visibility Wind Dir Wind Speed Gust Speed Precip Events Conditions
12:54 AM 48.9 °F - 39.0 °F 69% 29.45 in 10.0 mi SW 6.9 mph - N/A   Overcast
1:54 AM 48.9 °F - 39.0 °F 69% 29.45 in 10.0 mi SW 10.4 mph - N/A   Partly Cloudy
2:54 AM 48.9 °F - 39.0 °F 69% 29.46 in 10.0 mi West 6.9 mph - N/A   Mostly Cloudy
3:54 AM 48.0 °F - 39.0 °F 71% 29.46 in 10.0 mi WSW 8.1 mph - N/A   Mostly Cloudy
4:54 AM 48.9 °F - 39.0 °F 69% 29.47 in 10.0 mi WNW 10.4 mph - N/A   Overcast
5:54 AM 45.0 °F - 39.0 °F 80% 29.50 in 10.0 mi Calm Calm - N/A   Overcast
6:54 AM 43.0 °F - 37.9 °F 82% 29.53 in 10.0 mi Calm Calm - N/A   Clear
7:54 AM 43.0 °F - 39.0 °F 86% 29.54 in 10.0 mi Calm Calm - N/A   Partly Cloudy
8:54 AM 46.9 °F - 39.0 °F 74% 29.55 in 10.0 mi WNW 6.9 mph - N/A   Clear
9:54 AM 50.0 °F - 35.1 °F 57% 29.56 in 10.0 mi WSW 5.8 mph - N/A   Clear
10:54 AM 54.0 °F - 33.1 °F 45% 29.56 in 10.0 mi WNW 13.8 mph - N/A   Clear
11:54 AM 55.9 °F - 33.1 °F 42% 29.57 in 10.0 mi West 17.3 mph 25.3 mph N/A   Clear
12:54 PM 57.0 °F - 32.0 °F 39% 29.57 in 10.0 mi West 15.0 mph 28.8 mph N/A   Clear
1:54 PM 57.0 °F - 33.1 °F 40% 29.58 in 10.0 mi West 20.7 mph 29.9 mph N/A   Partly Cloudy
2:54 PM 57.9 °F - 34.0 °F 41% 29.59 in 10.0 mi West 20.7 mph 28.8 mph N/A   Mostly Cloudy
3:54 PM 57.0 °F - 34.0 °F 42% 29.61 in 10.0 mi West 18.4 mph 29.9 mph N/A   Overcast
4:54 PM 55.0 °F - 32.0 °F 42% 29.64 in 10.0 mi WNW 19.6 mph 28.8 mph N/A   Overcast
5:54 PM 54.0 °F - 33.1 °F 45% 29.67 in 10.0 mi WNW 18.4 mph 28.8 mph N/A   Overcast
6:54 PM 53.1 °F - 35.1 °F 50% 29.70 in 10.0 mi West 11.5 mph - N/A   Overcast
7:54 PM 51.1 °F - 34.0 °F 52% 29.74 in 10.0 mi NW 17.3 mph 25.3 mph N/A   Overcast
8:54 PM 50.0 °F - 30.9 °F 48% 29.76 in 10.0 mi NW 9.2 mph - 0.00 in   Overcast
9:54 PM 46.9 °F - 28.9 °F 50% 29.78 in 10.0 mi NW 13.8 mph 25.3 mph N/A   Mostly Cloudy
10:54 PM 46.0 °F 41.0 °F 28.0 °F 50% 29.79 in 10.0 mi NW 10.4 mph - N/A   Overcast
11:54 PM 46.0 °F 39.6 °F 28.9 °F 51% 29.80 in 10.0 mi WNW 15.0 mph 21.9 mph N/A   Overcast